Location: Buckland
(65.9785°N, 161.1281°W)
Time: 20:41:14
(UTC+00:00)

Transit 4A - Pass Details

Date: 05 October 2022
Orbit: 871 x 972 km, 66.8° (Epoch: 01 December)

Event Time Altitude Azimuth Distance (km) Brightness Sun altitude
Exits shadow 09:11:27 22° 76° (ENE) 1,861 9.4 -27.2°
Drops below altitude 10° 09:13:41 10° 63° (ENE) 2,570 10.2 -27.3°
Sets 09:16:18 0° 56° (ENE) 3,500 11.1 -27.4°
